カタログに戻る

STARLINK-34561

運用中通信VLEO
NORAD 65081·PAYLOAD·🇺🇸 United States

打ち上げ Aug 4, 2025 から Cape Canaveral Space Force Station

Loading…

次のパス (今後24時間)

TLE

最新Source: CelesTrak SupGP

元期: Sep 14, 2026, 22:43 UTC

1 65081C 25167D   26257.94701389  .00013680  00000+0  40409-3 0  2578
2 65081  53.1584 223.9448 0001390  92.5269  59.0971 15.34391049    17

AllMySatでSTARLINK-34561をリアルタイム追跡

Download on the App Store